Location: Molino d�Agugliano
(43.5667°N, 13.3333°E)
Time: 02:45:23
(UTC+00:00)

Daily predictions for brighter satellites

Satellite Brightness Start Highest point End
(mag) Time Altitude Azimuth Time Altitude Azimuth Time Altitude Azimuth
FALCON 9 R/B 3.6 03:21:24 45° S 03:22:12 46° SSE 03:38:24 10° E
Cosmos 2263 Rocket 4.0 03:26:47 21° NNE 03:26:47 21° NNE 03:28:32 10° NNE
Cosmos 1634 Rocket 3.8 03:45:14 10° S 03:51:26 89° E 03:57:38 10° N
Cosmos 1844 Rocket 3.9 03:48:23 10° S 03:53:31 40° ESE 03:58:41 10° NE
USA 234 3.3 03:55:15 10° NE 04:01:47 74° SE 04:05:30 28° SW
Cosmos 2195 Rocket 4.4 04:01:01 58° NW 04:02:09 70° W 04:08:23 10° S
Cosmos 1627 Rocket 4.4 04:02:04 44° NNW 04:04:11 74° W 04:10:30 10° S
COSMO-SKYMED 1 2.4 04:18:14 10° SSE 04:22:34 90° WSW 04:23:43 49° NNW
Cosmos 2142 Rocket 4.4 04:16:16 10° SSW 04:22:38 71° W 04:29:01 10° N
Cosmos 1655 Rocket 4.1 04:19:32 10° N 04:25:48 75° E 04:32:01 10° SSE
Cosmos 1741 Rocket 4.4 04:27:49 42° WSW 04:27:49 42° WSW 04:32:19 10° S
Cosmos 1733 Rocket 3.2 04:26:17 10° S 04:30:34 71° E 04:34:53 10° NNE
Meteor 1-13 Rocket 4.4 04:28:50 10° N 04:34:23 70° ENE 04:40:01 10° SSE
PSLV R/B 4.0 04:37:22 10° N 04:41:24 52° WNW 04:45:23 10° SSW
GEOS 3 Rocket 3.6 04:36:31 10° SE 04:41:36 81° NE 04:44:43 25° NNW
Cosmos 1500 3.0 04:41:11 10° S 04:45:01 85° W 04:48:51 10° N
Cosmos 2221 Rocket 3.8 04:44:54 42° WNW 04:45:27 44° W 04:49:39 10° SSW
Cosmos 1302 Rocket 4.2 04:41:14 10° SSW 04:46:29 74° ESE 04:51:48 10° NNE
ATLAS CENTAUR R/B 1.9 04:45:48 24° NNW 04:48:03 51° NE 04:51:50 10° SE
Cosmos 1515 3.9 04:49:19 44° W 04:49:33 45° W 04:53:12 10° SSW
NOSS 3-2 (A) 3.3 04:44:20 10° SW 04:50:04 90° SE 04:56:36 10° NE
Cosmos 1536 3.1 04:47:50 10° S 04:51:52 69° E 04:55:54 10° NNE
SJ-12 4.0 04:48:36 10° N 04:52:36 50° WNW 04:56:33 10° SSW
Cosmos 2266 Rocket 4.0 04:47:51 10° N 04:54:04 84° E 05:00:09 10° S
Okean O Rocket 1.5 04:51:53 10° NNE 04:56:19 87° W 05:00:44 10° SSW
Cosmos 332 Rocket 3.9 04:51:48 10° SW 04:56:34 51° WNW 05:01:21 10° N
PAYLOAD B 4.1 04:51:10 10° N 04:56:42 74° WNW 05:02:14 10° SSW
CENTAUR R/B 3.3 04:52:50 10° SSW 04:58:30 52° ESE 05:05:04 10° NE
Cosmos 44 4.3 05:01:17 24° NW 05:01:17 24° NW 05:04:55 10° N
Cosmos 1674 Rocket 3.4 04:57:25 10° N 05:01:46 77° W 05:06:03 10° S
USA 238 DEB 3.6 04:56:35 10° SW 05:03:13 70° NW 05:10:09 10° NNE
USA 238 3.6 04:56:41 10° SW 05:03:20 71° NW 05:10:15 10° NE
Orbus 7S? 3.3 05:04:23 31° NNW 05:04:23 31° NNW 05:06:28 10° NNE
Meteor 1-5 Rocket 4.2 04:58:28 10° SSW 05:04:20 65° WNW 05:10:06 10° N
Meteor 1-11 Rocket 3.7 04:58:46 10° SSW 05:04:34 78° W 05:10:31 10° N
NOAA 6 3.9 05:00:44 10° N 05:05:53 77° WNW 05:11:01 10° SSW
Cosmos 2263 Rocket 3.8 05:08:31 15° NW 05:08:31 15° NW 05:10:57 10° N
Cosmos 2278 Rocket 3.7 05:04:29 10° S 05:09:42 39° ESE 05:14:56 10° NE
ADEOS Rocket 3.7 05:03:50 10° SSE 05:10:24 58° ENE 05:16:20 10° N
Meteor 2-4 Rocket 4.0 05:06:10 10° NNW 05:11:13 41° W 05:16:11 10° SSW
ALOS 2.6 05:09:18 10° N 05:13:40 41° WNW 05:18:02 10° SW
Cosmos 371 Rocket 4.1 05:11:44 10° WSW 05:15:55 28° WNW 05:20:08 10° N
Okean 3 4.5 05:15:28 21° WNW 05:16:48 25° W 05:20:15 10° SW
Cosmos 1378 Rocket 3.5 05:12:59 10° NNW 05:17:25 73° W 05:21:50 10° S
Cosmos 2292 Rocket 4.0 05:11:25 10° N 05:17:35 87° W 05:22:08 10° S
Cosmos 405 3.6 05:15:56 20° NW 05:17:46 34° W 05:20:59 10° SSW
EP 3 4.3 05:15:57 10° SSW 05:18:04 56° SE 05:20:05 10° NE
METEOR-M 4.4 05:13:57 10° N 05:19:00 43° WNW 05:24:02 10° SW
Cosmos 1441 Rocket 4.3 05:15:30 10° S 05:19:19 50° E 05:23:08 10° NNE
FENGYUN 3A 3.9 05:14:47 10° N 05:19:51 44° WNW 05:24:56 10° SW
Okean-O 4.5 05:20:27 10° NNE 05:24:32 35° E 05:28:34 10° SSE
Cosmos 1833 Rocket 3.8 05:21:18 10° NNW 05:26:42 43° ENE 05:32:03 10° SE
Cosmos 1666 2.6 05:24:58 10° SSW 05:28:44 64° W 05:32:30 10° N
IRS-1C Rocket 4.2 05:29:34 10° NNE 05:34:51 81° ESE 05:40:06 10° SSW
Sich 1 Rocket 4.4 05:30:29 10° S 05:34:52 57° E 05:39:16 10° NNE
Helios 1A Rocket 3.5 05:32:42 10° N 05:36:21 33° WNW 05:39:58 10° SW
Okean 2 4.5 05:32:41 10° N 05:36:39 46° ENE 05:40:33 10° SSE
Cosmos 1844 Rocket 3.3 05:32:29 10° WSW 05:37:28 33° NW 05:42:29 10° N
USA 234 3.7 05:38:27 10° NE 05:44:33 43° NNW 05:50:39 10° W
Cosmos 1975 3.8 05:43:08 10° S 05:47:00 51° E 05:50:53 10° NNE
BREEZE-M DEB (TANK) 3.6 05:46:06 10° W 05:47:53 20° SSW 05:50:52 10° SSE
ATLAS 3B R/B 2.7 05:41:22 10° SSW 05:48:07 88° SE 05:54:49 10° NE
ERBS 3.9 05:46:19 10° SSW 05:49:25 39° SE 05:52:32 10° ENE
Cosmos 1908 Rocket 4.0 05:46:05 10° SSW 05:50:18 41° WNW 05:54:32 10° N
Cosmos 1844 4.4 05:45:39 10° WSW 05:50:51 33° NW 05:56:04 10° N
CZ-4B R/B 3.8 05:47:53 10° N 05:52:55 35° WNW 05:57:58 10° SW
Cosmos 1553 Rocket 4.4 05:47:52 10° S 05:53:57 69° E 06:00:11 10° NNE
NOSS 3-2 (C) 3.5 05:48:28 10° SW 05:54:10 55° NW 06:00:39 10° NNE
Radarsat Rocket 4.4 05:48:26 10° N 05:54:41 57° WNW 06:01:44 10° SW
COSMOS 2406 3.3 05:51:00 10° NNW 05:56:36 60° WSW 06:02:08 10° S
Aureole 2 4.1 05:54:55 10° NNW 05:58:11 74° WSW 06:01:09 10° SSE
BREEZE-M DEB (TANK) 3.3 05:53:40 10° WNW 05:58:21 32° N 06:00:38 10° ENE
ATLAS 5 CENTAUR R/B 4.3 06:00:18 10° N 06:02:01 11° NNE 06:03:48 10° NE
Cosmos 44 Rocket 4.0 05:57:54 10° WSW 06:02:13 31° NW 06:06:29 10° NNE
CZ-2C R/B 3.8 05:58:37 10° S 06:03:20 73° WSW 06:08:08 10° NNW
Envisat 3.1 05:58:40 10° NNE 06:03:47 84° ESE 06:08:52 10° SSW
AQUARIUS 4.3 05:59:36 10° N 06:03:59 51° WNW 06:08:19 10° SSW
Cosmos 921 Rocket 3.6 06:02:06 10° S 06:06:12 61° ESE 06:10:21 10° NNE
